Time,TemperatureF,DewpointF,PressureIn,WindDirection,WindDirectionDegrees,WindSpeedMPH,WindSpeedGustMPH,Humidity,HourlyPrecipIn,Conditions,Clouds,dailyrainin,SolarRadiationWatts/m^2,SoftwareType,DateUTC
2013-03-27 00:06:00,48.8,48.0,29.99,ESE,123,1.0,2.0,96,0.00,,,0.00,0,weatherlink.com 1.10,2013-03-27 07:06:00,
2013-03-27 00:22:00,49.9,49.0,29.99,SE,135,0.0,4.0,96,0.00,,,0.00,0,weatherlink.com 1.10,2013-03-27 07:22:00,
2013-03-27 00:36:00,49.8,49.0,29.98,SE,136,2.0,4.0,96,0.00,,,0.00,0,weatherlink.com 1.10,2013-03-27 07:36:00,
2013-03-27 00:51:00,49.1,48.0,29.98,ESE,120,1.0,4.0,96,0.00,,,0.00,0,weatherlink.com 1.10,2013-03-27 07:51:00,
2013-03-27 01:08:00,49.4,49.0,29.98,SE,135,3.0,6.0,97,0.00,,,0.00,0,weatherlink.com 1.10,2013-03-27 08:08:00,
2013-03-27 01:23:00,49.0,48.0,29.98,SE,134,2.0,5.0,97,0.00,,,0.00,0,weatherlink.com 1.10,2013-03-27 08:23:00,
2013-03-27 01:38:00,48.8,48.0,29.98,SSE,159,2.0,7.0,97,0.00,,,0.00,0,weatherlink.com 1.10,2013-03-27 08:38:00,
2013-03-27 01:52:00,47.8,47.0,29.98,SE,138,2.0,7.0,97,0.00,,,0.00,0,weatherlink.com 1.10,2013-03-27 08:52:00,
2013-03-27 02:08:00,48.4,48.0,29.98,SE,127,0.0,4.0,97,0.00,,,0.00,0,weatherlink.com 1.10,2013-03-27 09:08:00,
2013-03-27 02:22:00,48.5,48.0,29.97,SSE,155,1.0,5.0,97,0.00,,,0.00,0,weatherlink.com 1.10,2013-03-27 09:22:00,
2013-03-27 02:37:00,48.3,48.0,29.97,SE,137,2.0,5.0,97,0.00,,,0.00,0,weatherlink.com 1.10,2013-03-27 09:37:00,
2013-03-27 02:52:00,48.7,48.0,29.97,SSE,148,2.0,4.0,97,0.00,,,0.00,0,weatherlink.com 1.10,2013-03-27 09:52:00,
2013-03-27 03:09:00,48.6,48.0,29.97,SE,128,4.0,5.0,97,0.00,,,0.00,0,weatherlink.com 1.10,2013-03-27 10:09:00,
2013-03-27 03:24:00,48.6,48.0,29.96,SE,130,2.0,6.0,97,0.00,,,0.00,0,weatherlink.com 1.10,2013-03-27 10:24:00,
2013-03-27 03:39:00,48.8,48.0,29.96,SE,133,1.0,5.0,97,0.00,,,0.00,0,weatherlink.com 1.10,2013-03-27 10:39:00,
2013-03-27 03:53:00,49.1,48.0,29.96,SE,134,0.0,4.0,97,0.00,,,0.00,0,weatherlink.com 1.10,2013-03-27 10:53:00,
2013-03-27 04:09:00,49.2,48.0,29.96,SE,134,0.0,2.0,97,0.00,,,0.00,0,weatherlink.com 1.10,2013-03-27 11:09:00,
2013-03-27 04:23:00,49.2,48.0,29.96,SE,136,1.0,2.0,97,0.00,,,0.00,0,weatherlink.com 1.10,2013-03-27 11:23:00,
2013-03-27 04:38:00,49.0,48.0,29.96,SE,133,1.0,4.0,97,0.00,,,0.00,0,weatherlink.com 1.10,2013-03-27 11:38:00,
2013-03-27 04:54:00,48.8,48.0,29.96,SE,143,2.0,5.0,97,0.00,,,0.00,0,weatherlink.com 1.10,2013-03-27 11:54:00,
2013-03-27 05:09:00,49.0,48.0,29.96,SSE,150,5.0,7.0,97,0.00,,,0.00,0,weatherlink.com 1.10,2013-03-27 12:09:00,
2013-03-27 05:24:00,49.5,49.0,29.96,SSE,149,4.0,5.0,97,0.00,,,0.00,0,weatherlink.com 1.10,2013-03-27 12:24:00,
2013-03-27 05:38:00,49.2,48.0,29.96,SE,126,4.0,6.0,97,0.00,,,0.00,0,weatherlink.com 1.10,2013-03-27 12:38:00,
2013-03-27 05:55:00,49.7,49.0,29.96,SE,139,0.0,4.0,97,0.00,,,0.00,0,weatherlink.com 1.10,2013-03-27 12:55:00,
2013-03-27 06:09:00,49.9,49.0,29.96,SE,139,0.0,2.0,97,0.00,,,0.00,0,weatherlink.com 1.10,2013-03-27 13:09:00,
2013-03-27 06:25:00,49.9,49.0,29.96,SE,139,0.0,1.0,97,0.00,,,0.00,0,weatherlink.com 1.10,2013-03-27 13:25:00,
2013-03-27 06:40:00,50.1,49.0,29.96,ESE,121,2.0,5.0,97,0.00,,,0.00,0,weatherlink.com 1.10,2013-03-27 13:40:00,
2013-03-27 06:54:00,50.0,49.0,29.95,SE,135,0.0,2.0,97,0.00,,,0.00,0,weatherlink.com 1.10,2013-03-27 13:54:00,
2013-03-27 07:10:00,50.8,50.0,29.96,SE,138,0.0,2.0,98,0.00,,,0.00,5,weatherlink.com 1.10,2013-03-27 14:10:00,
2013-03-27 07:24:00,50.5,50.0,29.96,SE,138,1.0,2.0,98,0.00,,,0.00,11,weatherlink.com 1.10,2013-03-27 14:24:00,
2013-03-27 07:40:00,50.6,50.0,29.97,SE,138,0.0,2.0,98,0.00,,,0.00,14,weatherlink.com 1.10,2013-03-27 14:40:00,
2013-03-27 07:54:00,50.7,50.0,29.97,SE,142,0.0,5.0,98,0.00,,,0.00,16,weatherlink.com 1.10,2013-03-27 14:54:00,
2013-03-27 08:11:00,50.8,50.0,29.97,SE,144,0.0,4.0,98,0.00,,,0.00,42,weatherlink.com 1.10,2013-03-27 15:11:00,
2013-03-27 08:26:00,51.3,51.0,29.98,South,169,2.0,5.0,98,0.00,,,0.00,83,weatherlink.com 1.10,2013-03-27 15:26:00,
2013-03-27 08:41:00,51.4,51.0,29.98,SSE,154,4.0,5.0,98,0.00,,,0.00,69,weatherlink.com 1.10,2013-03-27 15:41:00,
2013-03-27 09:11:00,51.8,51.0,29.98,SSW,212,1.0,5.0,98,0.00,,,0.00,86,weatherlink.com 1.10,2013-03-27 16:11:00,
2013-03-27 09:26:00,52.1,52.0,29.98,SSW,195,1.0,5.0,98,0.00,,,0.00,95,weatherlink.com 1.10,2013-03-27 16:26:00,
2013-03-27 09:40:00,52.1,52.0,29.98,SSW,192,0.0,6.0,98,0.01,,,0.01,156,weatherlink.com 1.10,2013-03-27 16:40:00,
2013-03-27 09:56:00,52.8,53.0,29.98,South,190,2.0,6.0,99,0.01,,,0.01,137,weatherlink.com 1.10,2013-03-27 16:56:00,
2013-03-27 10:11:00,52.4,52.0,29.99,SW,214,0.0,5.0,99,0.01,,,0.01,125,weatherlink.com 1.10,2013-03-27 17:11:00,
2013-03-27 10:27:00,52.9,53.0,29.99,SW,218,1.0,2.0,99,0.00,,,0.01,104,weatherlink.com 1.10,2013-03-27 17:27:00,
2013-03-27 10:42:00,53.1,53.0,29.99,SW,218,0.0,0.0,99,0.00,,,0.01,118,weatherlink.com 1.10,2013-03-27 17:42:00,
2013-03-27 10:57:00,53.4,53.0,30.00,West,275,1.0,5.0,99,0.00,,,0.01,156,weatherlink.com 1.10,2013-03-27 17:57:00,
2013-03-27 11:12:00,53.6,53.0,30.00,WSW,252,1.0,3.0,99,0.01,,,0.02,156,weatherlink.com 1.10,2013-03-27 18:12:00,
2013-03-27 11:27:00,53.7,54.0,30.00,SW,232,1.0,4.0,99,0.01,,,0.02,155,weatherlink.com 1.10,2013-03-27 18:27:00,
2013-03-27 11:41:00,54.9,55.0,30.00,SSW,197,4.0,7.0,99,0.01,,,0.02,255,weatherlink.com 1.10,2013-03-27 18:41:00,
2013-03-27 11:56:00,56.4,56.0,30.00,SSW,196,4.0,8.0,99,0.01,,,0.02,332,weatherlink.com 1.10,2013-03-27 18:56:00,
2013-03-27 12:13:00,56.0,56.0,30.00,South,173,2.0,10.0,98,0.00,,,0.02,209,weatherlink.com 1.10,2013-03-27 19:13:00,
2013-03-27 12:28:00,56.3,56.0,30.00,South,182,9.0,14.0,97,0.00,,,0.02,374,weatherlink.com 1.10,2013-03-27 19:28:00,
2013-03-27 12:42:00,56.8,56.0,30.00,SSW,211,5.0,9.0,97,0.00,,,0.02,290,weatherlink.com 1.10,2013-03-27 19:42:00,
2013-03-27 12:58:00,56.3,55.0,30.00,South,183,8.0,12.0,96,0.00,,,0.02,281,weatherlink.com 1.10,2013-03-27 19:58:00,
2013-03-27 13:12:00,57.3,56.0,30.00,SSW,196,7.0,12.0,96,0.00,,,0.02,422,weatherlink.com 1.10,2013-03-27 20:12:00,
2013-03-27 13:28:00,57.6,56.0,30.00,SSW,196,5.0,10.0,94,0.00,,,0.02,459,weatherlink.com 1.10,2013-03-27 20:28:00,
2013-03-27 13:42:00,57.6,55.0,30.00,South,190,5.0,8.0,92,0.00,,,0.02,371,weatherlink.com 1.10,2013-03-27 20:42:00,
2013-03-27 13:58:00,58.0,56.0,29.99,SSW,197,4.0,10.0,92,0.00,,,0.02,309,weatherlink.com 1.10,2013-03-27 20:58:00,
2013-03-27 14:13:00,58.6,56.0,29.99,South,182,5.0,10.0,92,0.00,,,0.02,425,weatherlink.com 1.10,2013-03-27 21:13:00,
2013-03-27 14:29:00,59.0,56.0,29.98,SSW,202,4.0,10.0,90,0.00,,,0.02,439,weatherlink.com 1.10,2013-03-27 21:29:00,
2013-03-27 14:44:00,57.5,55.0,29.98,SW,223,8.0,9.0,90,0.00,,,0.02,357,weatherlink.com 1.10,2013-03-27 21:44:00,
2013-03-27 14:59:00,56.9,55.0,29.98,SW,225,7.0,10.0,92,0.00,,,0.02,216,weatherlink.com 1.10,2013-03-27 21:59:00,
2013-03-27 15:14:00,56.1,54.0,29.98,SW,215,8.0,12.0,93,0.00,,,0.02,225,weatherlink.com 1.10,2013-03-27 22:14:00,
2013-03-27 15:29:00,56.6,55.0,29.98,SSW,204,4.0,10.0,94,0.00,,,0.02,209,weatherlink.com 1.10,2013-03-27 22:29:00,
2013-03-27 15:43:00,56.4,55.0,29.98,SSW,205,8.0,10.0,95,0.00,,,0.02,202,weatherlink.com 1.10,2013-03-27 22:43:00,
2013-03-27 15:58:00,56.8,55.0,29.98,SSW,204,9.0,10.0,94,0.00,,,0.02,267,weatherlink.com 1.10,2013-03-27 22:58:00,
2013-03-27 16:13:00,57.1,55.0,29.98,SSW,203,9.0,11.0,93,0.00,,,0.02,186,weatherlink.com 1.10,2013-03-27 23:13:00,
2013-03-27 16:29:00,56.1,54.0,29.98,SSW,213,6.0,12.0,93,0.00,,,0.02,130,weatherlink.com 1.10,2013-03-27 23:29:00,
2013-03-27 16:45:00,55.1,54.0,29.99,SW,229,8.0,12.0,94,0.00,,,0.02,104,weatherlink.com 1.10,2013-03-27 23:45:00,
2013-03-27 17:00:00,54.1,53.0,29.99,SW,218,10.0,13.0,95,0.00,,,0.02,84,weatherlink.com 1.10,2013-03-28 00:00:00,
2013-03-27 17:15:00,53.5,52.0,29.99,SSW,206,5.0,11.0,96,0.00,,,0.02,125,weatherlink.com 1.10,2013-03-28 00:15:00,
2013-03-27 17:29:00,53.6,53.0,29.99,SSW,194,3.0,10.0,96,0.00,,,0.02,155,weatherlink.com 1.10,2013-03-28 00:29:00,
2013-03-27 17:44:00,53.9,53.0,29.99,SW,215,8.0,9.0,97,0.00,,,0.02,146,weatherlink.com 1.10,2013-03-28 00:44:00,
2013-03-27 18:00:00,53.6,53.0,29.99,SW,221,4.0,9.0,96,0.00,,,0.02,125,weatherlink.com 1.10,2013-03-28 01:00:00,
2013-03-27 18:15:00,53.7,53.0,29.99,SSW,201,8.0,8.0,96,0.00,,,0.02,107,weatherlink.com 1.10,2013-03-28 01:15:00,
2013-03-27 18:30:00,53.7,53.0,29.99,SSW,200,8.0,9.0,96,0.00,,,0.02,86,weatherlink.com 1.10,2013-03-28 01:30:00,
2013-03-27 18:45:00,53.3,52.0,29.99,SSW,209,7.0,10.0,96,0.00,,,0.02,77,weatherlink.com 1.10,2013-03-28 01:45:00,
2013-03-27 19:00:00,53.0,52.0,29.99,SW,215,6.0,9.0,96,0.00,,,0.02,53,weatherlink.com 1.10,2013-03-28 02:00:00,
2013-03-27 19:16:00,52.8,52.0,29.99,SSW,211,6.0,8.0,96,0.00,,,0.02,26,weatherlink.com 1.10,2013-03-28 02:16:00,
2013-03-27 19:30:00,52.8,52.0,29.99,SW,225,1.0,6.0,96,0.00,,,0.02,0,weatherlink.com 1.10,2013-03-28 02:30:00,
2013-03-27 19:46:00,52.4,51.0,29.99,SW,224,3.0,6.0,96,0.00,,,0.02,0,weatherlink.com 1.10,2013-03-28 02:46:00,
2013-03-27 20:00:00,52.3,51.0,30.00,SSW,213,0.0,4.0,96,0.00,,,0.02,0,weatherlink.com 1.10,2013-03-28 03:00:00,
2013-03-27 20:15:00,52.4,52.0,30.00,SSW,212,0.0,2.0,97,0.00,,,0.02,0,weatherlink.com 1.10,2013-03-28 03:15:00,
2013-03-27 20:31:00,53.1,52.0,30.00,SSW,212,0.0,1.0,97,0.00,,,0.02,0,weatherlink.com 1.10,2013-03-28 03:31:00,
2013-03-27 20:46:00,52.4,52.0,30.01,SSW,205,2.0,6.0,97,0.00,,,0.02,0,weatherlink.com 1.10,2013-03-28 03:46:00,
2013-03-27 21:00:00,52.3,52.0,30.01,SSW,203,3.0,5.0,97,0.00,,,0.02,0,weatherlink.com 1.10,2013-03-28 04:00:00,
2013-03-27 21:16:00,52.1,51.0,30.01,SSW,211,5.0,7.0,97,0.00,,,0.02,0,weatherlink.com 1.10,2013-03-28 04:16:00,
2013-03-27 21:31:00,51.7,51.0,30.01,SSW,208,3.0,5.0,97,0.00,,,0.02,0,weatherlink.com 1.10,2013-03-28 04:31:00,
2013-03-27 21:46:00,51.9,51.0,30.01,SSW,192,1.0,6.0,97,0.00,,,0.02,0,weatherlink.com 1.10,2013-03-28 04:46:00,
2013-03-27 22:01:00,52.1,51.0,30.02,SSW,192,1.0,7.0,97,0.00,,,0.02,0,weatherlink.com 1.10,2013-03-28 05:01:00,
2013-03-27 22:17:00,52.1,51.0,30.02,South,184,2.0,6.0,97,0.00,,,0.02,0,weatherlink.com 1.10,2013-03-28 05:17:00,
2013-03-27 22:32:00,51.6,51.0,30.02,South,184,0.0,0.0,98,0.00,,,0.02,0,weatherlink.com 1.10,2013-03-28 05:32:00,
2013-03-27 22:47:00,51.5,51.0,30.02,South,182,0.0,0.0,98,0.00,,,0.02,0,weatherlink.com 1.10,2013-03-28 05:47:00,
2013-03-27 23:02:00,51.3,51.0,30.02,ESE,121,2.0,4.0,98,0.00,,,0.02,0,weatherlink.com 1.10,2013-03-28 06:02:00,
2013-03-27 23:17:00,51.1,51.0,30.02,ESE,107,0.0,2.0,98,0.00,,,0.02,0,weatherlink.com 1.10,2013-03-28 06:17:00,
2013-03-27 23:32:00,51.3,51.0,30.02,ESE,107,0.0,0.0,98,0.00,,,0.02,0,weatherlink.com 1.10,2013-03-28 06:32:00,
2013-03-27 23:46:00,51.9,51.0,30.02,SE,134,0.0,4.0,98,0.00,,,0.02,0,weatherlink.com 1.10,2013-03-28 06:46:00,